Precipitable_Water
0.56 0.54 0.52 0.48 0.48 0.48 0.49 0.48 0.46 0.46 0.43 0.43 0.41 0.40 0.39 0.39 0.36 0.33 0.20 0.25 0.43 0.57 0.73 0.75 0.94 0.87 1.09 1.10 1.33 1.28 0.97 1.00 0.89 0.77 0.74 0.92 0.96 1.22 1.29 1.21 1.27 1.50 1.33 1.31 1.46
0.51 0.52 0.51 0.50 0.47 0.46 0.46 0.47 0.47 0.46 0.45 0.44 0.43 0.41 0.40 0.41 0.29 0.19 0.18 0.25 0.38 0.66 0.60 0.60 0.69 0.94 0.86 0.89 0.92 0.88 0.87 0.95 1.03 0.94 0.80 0.88 0.98 0.98 1.06 1.07 1.13 1.25 1.43 1.49 1.44
0.46 0.47 0.48 0.48 0.48 0.46 0.46 0.45 0.45 0.45 0.45 0.45 0.45 0.43 0.40 0.44 0.23 0.28 0.46 0.34 0.34 0.55 0.56 0.58 0.60 0.74 0.77 0.85 0.82 0.86 0.84 0.95 0.96 0.93 0.87 0.81 0.84 0.84 0.84 0.92 1.06 0.95 1.19 1.35 1.31
0.46 0.44 0.43 0.44 0.45 0.46 0.45 0.43 0.43 0.44 0.45 0.46 0.46 0.45 0.42 0.37 0.13 0.45 0.49 0.40 0.38 0.40 0.46 0.49 0.53 0.55 0.61 0.68 0.80 0.80 0.92 0.92 1.01 0.98 0.88 0.82 0.87 0.82 0.78 0.96 1.20 1.22 1.21 1.29 1.31
0.50 0.47 0.44 0.42 0.41 0.42 0.43 0.42 0.41 0.42 0.43 0.44 0.46 0.47 0.35 0.26 0.20 0.33 0.42 0.45 0.44 0.33 0.29 0.40 0.45 0.54 0.55 0.64 0.70 0.74 0.76 0.83 0.93 0.97 0.87 0.88 0.86 0.85 0.82 1.05 1.23 1.27 1.24 1.22 1.26
0.57 0.51 0.48 0.45 0.43 0.41 0.39 0.39 0.40 0.41 0.42 0.44 0.46 0.49 0.31 0.15 0.27 0.38 0.42 0.43 0.38 0.32 0.23 0.33 0.45 0.56 0.60 0.61 0.59 0.65 0.66 0.72 0.77 0.81 0.84 0.79 0.85 0.86 0.94 1.13 1.10 1.08 1.07 1.22 1.24
0.67 0.61 0.56 0.51 0.47 0.44 0.40 0.37 0.36 0.39 0.41 0.43 0.50 0.47 0.29 0.18 0.30 0.51 0.45 0.41 0.38 0.32 0.22 0.30 0.48 0.55 0.59 0.58 0.59 0.58 0.53 0.55 0.63 0.67 0.69 0.89 0.89 0.89 0.98 0.94 0.97 0.98 0.99 1.09 1.26
0.74 0.68 0.63 0.58 0.53 0.48 0.43 0.39 0.34 0.35 0.39 0.45 0.55 0.48 0.20 0.28 0.28 0.33 0.40 0.36 0.43 0.42 0.34 0.29 0.45 0.54 0.53 0.58 0.51 0.47 0.46 0.42 0.55 0.59 0.64 0.72 0.63 0.89 0.89 0.86 0.87 0.96 0.89 0.98 1.11
0.82 0.75 0.68 0.63 0.59 0.52 0.45 0.40 0.36 0.39 0.42 0.53 0.46 0.41 0.23 0.38 0.27 0.25 0.34 0.34 0.37 0.40 0.43 0.38 0.37 0.41 0.48 0.43 0.39 0.38 0.33 0.38 0.47 0.59 0.65 0.69 0.64 0.80 1.00 0.97 0.84 0.87 0.85 0.88 1.03
0.84 0.80 0.75 0.68 0.62 0.57 0.51 0.41 0.44 0.55 0.67 0.64 0.50 0.37 0.32 0.26 0.31 0.29 0.36 0.41 0.32 0.30 0.30 0.33 0.33 0.30 0.34 0.36 0.27 0.30 0.30 0.37 0.42 0.56 0.64 0.67 0.66 0.74 0.85 0.87 0.87 0.80 0.84 0.79 0.89
0.89 0.84 0.79 0.73 0.67 0.60 0.54 0.43 0.37 0.37 0.55 0.37 0.40 0.27 0.24 0.36 0.45 0.38 0.36 0.30 0.29 0.25 0.21 0.23 0.23 0.20 0.26 0.32 0.35 0.35 0.33 0.36 0.44 0.57 0.64 0.67 0.73 0.76 0.89 0.82 0.79 0.77 0.85 0.80 0.76
0.88 0.85 0.82 0.77 0.71 0.61 0.63 0.44 0.39 0.33 0.25 0.28 0.24 0.32 0.38 0.48 0.38 0.37 0.42 0.30 0.25 0.23 0.26 0.19 0.17 0.24 0.30 0.34 0.34 0.35 0.32 0.35 0.46 0.60 0.65 0.71 0.71 0.78 0.84 0.67 0.75 0.78 0.83 0.79 0.82
0.85 0.83 0.82 0.79 0.70 0.72 0.54 0.49 0.50 0.41 0.27 0.26 0.26 0.22 0.20 0.36 0.35 0.37 0.40 0.34 0.29 0.22 0.21 0.17 0.22 0.25 0.25 0.29 0.33 0.36 0.30 0.37 0.43 0.59 0.71 0.75 0.70 0.73 0.81 0.80 0.92 0.91 0.90 0.86 0.74
0.82 0.81 0.80 0.82 0.67 0.61 0.52 0.61 0.55 0.43 0.25 0.25 0.26 0.25 0.24 0.25 0.29 0.42 0.43 0.33 0.29 0.22 0.21 0.21 0.24 0.22 0.18 0.20 0.30 0.30 0.38 0.41 0.43 0.48 0.49 0.74 0.56 0.73 0.82 0.90 1.00 1.00 0.93 0.83 0.79
0.79 0.78 0.78 0.76 0.72 0.62 0.56 0.64 0.53 0.45 0.19 0.30 0.28 0.31 0.27 0.20 0.24 0.31 0.39 0.35 0.24 0.26 0.22 0.16 0.22 0.21 0.19 0.17 0.24 0.27 0.40 0.41 0.42 0.43 0.51 0.58 0.60 0.63 0.87 0.84 0.88 0.98 0.97 0.89 0.86
0.69 0.72 0.74 0.68 0.70 0.66 0.67 0.62 0.51 0.31 0.20 0.29 0.28 0.26 0.24 0.23 0.22 0.26 0.30 0.29 0.28 0.27 0.28 0.22 0.25 0.21 0.22 0.23 0.20 0.25 0.31 0.36 0.40 0.40 0.34 0.46 0.51 0.60 0.73 0.83 0.88 0.96 1.01 0.98 0.94
0.58 0.57 0.57 0.69 0.55 0.63 0.67 0.52 0.33 0.24 0.34 0.29 0.29 0.30 0.26 0.24 0.24 0.23 0.24 0.23 0.18 0.16 0.15 0.17 0.19 0.25 0.23 0.20 0.22 0.19 0.22 0.22 0.26 0.29 0.26 0.38 0.44 0.55 0.71 0.81 0.83 0.91 1.07 1.07 1.09
0.54 0.47 0.44 0.51 0.62 0.66 0.62 0.40 0.26 0.30 0.31 0.38 0.34 0.34 0.29 0.29 0.26 0.24 0.27 0.23 0.23 0.19 0.17 0.14 0.13 0.20 0.24 0.20 0.18 0.18 0.19 0.18 0.16 0.20 0.24 0.33 0.31 0.38 0.66 0.76 0.83 1.01 1.12 1.11 1.19
0.50 0.38 0.33 0.34 0.50 0.59 0.46 0.31 0.27 0.33 0.38 0.36 0.36 0.30 0.30 0.33 0.33 0.29 0.27 0.27 0.25 0.21 0.20 0.16 0.15 0.24 0.25 0.23 0.20 0.17 0.15 0.21 0.21 0.26 0.25 0.26 0.32 0.40 0.52 0.64 0.79 0.87 1.00 1.01 1.05
0.44 0.36 0.25 0.44 0.54 0.46 0.34 0.27 0.31 0.38 0.38 0.39 0.31 0.32 0.28 0.30 0.32 0.34 0.31 0.32 0.32 0.32 0.31 0.22 0.19 0.24 0.25 0.27 0.23 0.19 0.20 0.17 0.18 0.15 0.16 0.20 0.26 0.27 0.44 0.52 0.68 0.75 0.83 0.91 0.95
0.43 0.31 0.23 0.43 0.47 0.38 0.22 0.26 0.32 0.41 0.43 0.38 0.36 0.34 0.32 0.30 0.31 0.29 0.31 0.35 0.34 0.35 0.36 0.28 0.23 0.22 0.27 0.25 0.22 0.20 0.17 0.18 0.19 0.18 0.16 0.19 0.20 0.36 0.40 0.53 0.68 0.75 0.76 0.83 0.87
0.39 0.24 0.28 0.44 0.29 0.33 0.27 0.29 0.36 0.36 0.46 0.45 0.43 0.40 0.37 0.36 0.32 0.30 0.28 0.30 0.38 0.38 0.34 0.34 0.29 0.21 0.22 0.29 0.31 0.26 0.20 0.19 0.15 0.15 0.19 0.20 0.19 0.34 0.43 0.54 0.66 0.68 0.75 0.78 0.80
0.34 0.30 0.28 0.39 0.25 0.27 0.33 0.32 0.35 0.32 0.33 0.37 0.41 0.46 0.45 0.39 0.34 0.34 0.33 0.35 0.35 0.36 0.35 0.37 0.29 0.25 0.22 0.26 0.29 0.27 0.27 0.24 0.20 0.19 0.16 0.18 0.14 0.28 0.39 0.50 0.61 0.78 0.90 0.84 0.80
0.43 0.26 0.26 0.36 0.39 0.35 0.30 0.29 0.30 0.39 0.37 0.38 0.38 0.46 0.43 0.41 0.43 0.36 0.35 0.37 0.37 0.34 0.37 0.38 0.32 0.27 0.23 0.24 0.28 0.27 0.28 0.28 0.24 0.16 0.14 0.15 0.18 0.26 0.36 0.45 0.53 0.63 0.73 0.75 0.75
0.48 0.36 0.39 0.26 0.32 0.39 0.42 0.41 0.33 0.29 0.36 0.38 0.39 0.44 0.46 0.43 0.42 0.40 0.44 0.43 0.42 0.40 0.38 0.35 0.30 0.28 0.29 0.31 0.32 0.28 0.32 0.29 0.26 0.21 0.17 0.16 0.16 0.21 0.27 0.45 0.51 0.63 0.66 0.68 0.73
0.44 0.40 0.43 0.34 0.33 0.33 0.36 0.32 0.31 0.31 0.36 0.30 0.36 0.44 0.45 0.47 0.52 0.46 0.49 0.47 0.43 0.43 0.42 0.41 0.33 0.32 0.29 0.31 0.34 0.29 0.32 0.34 0.30 0.28 0.24 0.21 0.19 0.25 0.29 0.38 0.48 0.63 0.61 0.62 0.69
0.58 0.58 0.48 0.39 0.32 0.30 0.30 0.36 0.37 0.37 0.38 0.42 0.43 0.38 0.41 0.46 0.56 0.63 0.59 0.54 0.51 0.46 0.42 0.40 0.37 0.35 0.25 0.32 0.37 0.33 0.28 0.34 0.38 0.33 0.30 0.24 0.23 0.26 0.23 0.29 0.39 0.49 0.54 0.62 0.66
Wind_Speed
15 15 15 15 15 15 15 15 15 15 14 14 14 14 14 14 14 12 13 15 17 19 16 13 12 11 10 12 10 5 3 4 4 2 5 5 11 11 7 11 8 3 12 15 19
15 15 15 16 16 16 16 16 15 15 15 15 15 14 14 14 13 14 14 15 17 18 20 17 15 12 11 10 9 9 5 6 3 6 3 9 8 6 8 9 5 11 13 16 17
15 16 16 16 17 17 16 16 16 16 16 15 15 15 14 13 11 8 6 12 16 19 20 19 17 15 14 12 11 8 5 3 5 5 6 8 5 5 9 7 11 14 16 17 16
16 17 17 17 18 18 17 17 17 17 16 16 15 15 14 10 7 5 5 6 12 16 21 21 18 16 14 14 12 11 12 6 3 3 5 8 6 7 6 9 11 12 16 16 17
18 18 18 18 18 18 19 19 19 18 17 16 15 14 12 10 12 14 11 9 10 14 20 22 21 18 17 15 13 13 12 9 9 9 4 7 6 7 6 11 12 11 13 16 16
19 19 19 19 19 19 20 20 20 19 19 17 16 14 11 11 11 11 13 13 13 14 18 23 19 19 16 17 15 14 12 15 10 13 8 7 9 7 10 11 12 11 12 15 17
20 20 20 20 20 20 20 20 20 20 19 18 16 14 14 13 8 7 10 11 12 16 17 21 22 18 16 16 16 16 16 15 15 10 8 9 5 7 11 11 11 11 11 15 16
21 21 21 21 21 21 21 21 21 20 18 16 14 14 15 15 15 13 14 14 14 14 16 20 22 20 18 16 17 16 14 12 12 13 12 10 14 16 13 11 11 12 12 15 17
22 22 22 23 22 22 22 23 21 18 16 14 13 13 16 13 13 16 14 13 14 16 19 18 20 21 19 17 14 14 14 13 13 14 11 10 7 15 15 13 12 12 13 15 17
24 24 24 24 24 23 23 22 17 14 13 13 14 12 14 12 11 13 15 14 13 14 17 19 19 20 21 18 17 15 13 15 15 11 16 10 10 13 15 13 14 14 14 16 18
26 27 26 26 25 25 22 16 15 14 15 16 13 14 16 12 11 12 13 14 14 15 17 20 20 24 22 24 20 18 18 16 14 16 13 12 13 17 15 13 14 16 16 16 18
28 28 28 28 27 24 19 17 19 22 23 23 25 26 24 17 13 15 15 14 15 17 15 17 23 23 22 23 25 23 21 20 16 17 15 16 17 20 20 16 19 19 17 17 18
30 29 29 29 27 19 20 19 21 22 23 24 27 25 25 22 22 19 18 17 16 18 19 20 15 23 25 26 27 28 24 20 16 14 18 18 14 18 18 14 18 19 19 18 19
32 32 31 30 21 22 20 20 21 22 22 20 20 20 23 25 22 25 24 19 19 20 20 20 21 22 25 28 28 28 26 24 21 17 16 19 15 18 18 17 16 19 23 20 19
33 33 31 30 28 25 25 24 24 21 21 16 16 13 16 27 13 27 27 24 23 21 18 22 21 23 25 26 28 28 25 27 23 20 14 20 16 15 20 22 25 25 27 23 21
35 34 33 29 28 30 28 27 23 20 24 18 16 16 15 24 25 13 29 30 23 24 24 23 21 24 24 23 28 26 26 27 26 23 23 21 22 19 21 24 26 25 26 25 23
37 36 35 31 26 27 26 23 22 25 22 20 19 19 23 22 28 30 28 31 30 26 28 25 27 27 25 25 24 28 26 25 25 25 22 23 23 20 23 23 26 28 29 25 24
40 40 34 33 30 30 25 24 29 27 29 23 16 22 26 24 26 29 25 29 32 30 20 24 26 29 24 29 26 26 30 28 25 26 23 23 26 22 24 21 22 22 31 26 23
44 39 35 33 31 31 29 31 28 28 24 19 25 26 28 28 25 28 32 31 31 34 29 24 26 20 30 27 29 26 31 28 23 23 22 25 25 26 25 25 25 24 25 29 27
43 39 35 32 31 32 35 39 33 32 30 27 25 25 22 23 28 30 33 34 32 34 34 26 21 28 26 28 30 32 24 26 31 29 30 29 26 25 17 25 25 24 27 27 23
41 39 33 31 36 36 40 37 40 42 38 31 33 38 36 34 31 31 36 36 36 33 34 35 31 29 24 30 31 29 30 30 23 31 26 24 30 24 23 20 25 27 28 27 27
40 38 32 35 33 37 40 40 41 42 42 43 40 41 40 38 38 37 37 33 32 36 34 33 31 31 36 32 32 34 29 30 28 25 26 26 30 22 25 19 28 31 28 26 23
39 40 34 33 34 36 38 43 43 43 41 41 44 43 42 44 42 41 40 38 33 29 37 33 35 29 31 32 34 35 34 31 35 24 30 23 30 33 31 20 14 16 21 22 22
35 32 30 30 31 35 37 38 38 38 38 35 37 37 38 39 39 40 40 38 37 37 33 29 35 42 36 33 29 29 36 34 33 33 32 38 29 23 27 25 21 27 26 24 23
30 30 30 28 29 31 30 33 38 37 38 36 34 34 36 37 39 36 32 34 35 35 31 29 40 42 38 37 33 40 30 37 37 36 32 29 36 31 29 24 26 22 21 20 20
25 25 25 28 28 30 30 29 32 32 30 37 36 37 35 38 41 37 35 34 37 33 28 27 31 36 35 36 38 37 36 33 39 36 36 34 36 27 28 29 25 26 25 26 21
19 19 19 19 21 22 23 24 25 27 25 28 31 38 34 35 40 44 41 42 44 41 36 32 27 28 36 33 30 32 44 36 29 37 35 35 34 30 33 30 25 27 29 27 25
Wind_Direction
318 317 317 316 314 314 315 313 312 312 312 312 307 300 297 296 292 274 255 238 224 219 215 217 215 219 225 232 224 240 309 355 302 66 120 113 115 131 146 141 146 204 154 151 156
319 318 316 316 315 312 311 312 312 309 309 307 308 306 301 298 287 274 260 236 222 215 212 216 215 214 223 225 230 234 248 223 194 293 209 154 131 143 154 147 164 152 151 159 160
323 319 316 315 313 311 309 309 308 309 308 305 304 303 305 301 285 258 277 224 217 214 214 214 219 222 226 223 233 243 195 197 302 265 192 163 151 154 161 165 164 158 161 167 167
323 321 318 314 312 310 308 306 305 306 305 304 303 301 299 291 275 254 246 213 213 217 215 215 217 222 225 228 232 218 226 218 131 194 180 181 173 161 175 166 162 164 165 170 172
322 319 318 315 312 309 306 304 301 300 300 300 300 301 294 275 263 249 252 236 222 216 214 212 214 217 221 224 232 234 223 233 239 214 201 182 197 190 186 157 160 164 170 174 176
319 318 316 314 312 310 306 303 300 297 293 292 292 292 284 274 273 266 236 232 232 222 214 210 211 215 223 227 230 231 248 235 261 210 208 213 190 169 153 159 162 168 178 182 180
317 316 314 313 311 310 307 304 301 296 290 286 283 277 274 261 273 259 232 234 230 221 216 212 215 221 223 231 236 248 257 253 239 205 220 176 172 210 174 166 170 172 181 189 184
314 313 312 311 310 308 306 304 300 295 287 282 276 273 269 271 264 251 246 243 228 219 217 215 216 223 227 231 242 248 247 245 237 216 219 201 219 219 188 180 181 182 185 188 190
314 312 311 310 308 307 306 303 298 291 282 275 270 270 278 274 252 244 236 235 229 226 221 219 218 221 225 227 237 234 236 236 239 219 205 209 195 179 203 197 193 190 188 191 193
312 311 309 307 306 305 305 301 291 288 279 271 267 274 268 269 251 235 232 231 226 223 224 222 222 222 220 218 221 225 228 234 232 241 201 204 203 210 206 205 199 198 193 193 196
309 308 306 305 303 301 300 295 287 282 274 264 260 258 271 270 244 229 221 222 220 225 221 220 221 223 220 220 224 229 230 232 237 215 206 207 217 209 213 216 217 204 197 196 198
307 307 306 303 301 297 287 281 283 284 282 268 263 254 256 252 257 233 216 214 216 224 218 223 226 223 225 225 224 232 237 242 248 227 212 218 223 215 219 237 218 209 199 199 199
304 304 304 302 298 284 286 282 286 289 277 273 259 254 243 240 244 242 215 220 225 228 222 227 230 224 226 226 224 227 233 236 239 239 230 221 239 230 233 228 214 217 207 205 203
302 301 300 300 283 285 275 289 289 292 277 275 259 256 238 235 247 232 221 225 231 232 231 236 229 226 224 229 225 226 228 234 241 245 244 225 238 230 226 213 230 232 211 210 207
301 298 296 293 279 275 274 280 285 282 277 270 252 247 233 220 237 232 227 226 230 228 227 232 226 228 231 228 227 230 227 231 239 241 226 230 242 225 217 214 220 230 212 214 212
300 298 296 286 276 271 275 273 272 265 262 267 247 241 224 225 234 245 220 230 234 235 240 240 237 234 235 233 228 231 229 234 237 239 243 230 231 236 221 219 227 224 215 215 217
298 296 292 282 272 271 274 265 258 255 265 263 249 241 236 233 232 237 231 222 225 228 236 238 238 238 233 234 230 223 224 230 235 234 238 233 232 233 229 235 229 221 218 222 220
296 294 287 278 271 267 262 258 254 260 251 268 262 258 240 236 233 233 222 226 226 231 233 232 237 230 228 228 227 224 222 227 231 235 244 241 238 239 234 236 226 217 221 219 224
295 289 283 277 267 257 254 252 255 252 261 272 267 260 245 238 236 228 232 227 227 225 232 230 237 236 229 232 223 227 226 230 239 241 245 241 246 248 237 235 230 223 213 220 242
293 286 279 270 267 251 251 251 253 254 270 271 260 249 255 255 248 231 230 232 229 227 230 237 242 232 234 227 231 225 228 224 231 236 242 244 240 240 245 231 223 220 218 226 238
288 284 276 272 265 250 250 252 255 257 259 257 256 258 256 255 253 256 240 235 232 229 229 231 238 242 237 227 224 227 227 229 233 233 240 243 243 239 237 235 224 222 224 231 232
286 280 275 277 265 255 255 257 260 260 257 255 255 257 254 255 253 250 250 251 233 229 230 227 231 237 239 238 230 226 226 225 232 235 241 244 248 238 237 248 235 226 231 240 234
286 283 277 267 262 260 263 261 260 260 259 256 254 252 251 250 252 247 250 244 241 241 230 228 229 233 236 236 235 228 227 228 231 233 237 235 250 237 234 239 238 227 228 229 227
288 283 275 274 264 266 266 265 266 263 262 260 257 256 251 251 246 244 249 240 240 240 239 243 226 227 230 233 229 235 226 225 225 232 238 241 248 249 231 231 232 226 230 238 235
285 279 280 271 266 271 267 266 264 261 256 260 255 254 254 250 249 242 241 245 237 239 234 233 233 231 234 231 225 233 235 223 226 231 230 243 241 239 238 232 231 228 233 225 221
285 284 279 275 269 268 264 266 268 265 260 255 258 254 251 242 243 243 243 240 229 231 235 233 235 223 228 228 229 230 229 234 227 231 236 241 244 236 238 231 237 235 230 226 228
283 282 281 274 273 266 258 269 269 274 260 256 257 246 251 248 241 238 239 237 233 235 234 228 227 228 226 221 227 230 228 232 236 231 231 235 242 241 242 234 234 237 233 225 229